Time,TemperatureF,DewpointF,PressureIn,WindDirection,WindDirectionDegrees,WindSpeedMPH,WindSpeedGustMPH,Humidity,HourlyPrecipIn,Conditions,Clouds,dailyrainin,SoftwareType,DateUTC
2013-05-19 00:03:00,67.0,57.0,29.10,East,90,0.0,0.0,70,0.00,,,0.00,,2013-05-19 04:03:00,
2013-05-19 00:12:00,67.0,57.0,29.10,East,90,0.0,0.0,70,0.00,,,0.00,,2013-05-19 04:12:00,
2013-05-19 00:23:00,67.0,58.0,29.10,East,90,0.0,0.0,72,0.00,,,0.00,,2013-05-19 04:23:00,
2013-05-19 00:33:00,67.0,57.0,29.11,East,90,0.0,0.0,71,0.00,,,0.00,,2013-05-19 04:33:00,
2013-05-19 00:42:00,67.0,57.0,29.11,East,90,0.0,0.0,71,0.00,,,0.00,,2013-05-19 04:42:00,
2013-05-19 00:52:00,67.0,58.0,29.11,East,90,0.0,0.0,72,0.00,,,0.00,,2013-05-19 04:52:00,
2013-05-19 01:02:00,66.0,57.0,29.11,East,90,0.0,0.0,73,0.00,,,0.00,,2013-05-19 05:02:00,
2013-05-19 01:12:00,66.0,57.0,29.11,East,90,0.0,0.0,73,0.00,,,0.00,,2013-05-19 05:12:00,
2013-05-19 01:22:00,66.0,57.0,29.08,East,90,0.0,0.0,74,0.00,,,0.00,,2013-05-19 05:22:00,
2013-05-19 01:32:00,66.0,58.0,29.08,East,90,0.0,0.0,75,0.00,,,0.00,,2013-05-19 05:32:00,
2013-05-19 01:42:00,66.0,58.0,29.08,East,90,0.0,0.0,76,0.00,,,0.00,,2013-05-19 05:42:00,
2013-05-19 01:52:00,66.0,58.0,29.08,East,90,0.0,0.0,76,0.00,,,0.00,,2013-05-19 05:52:00,
2013-05-19 02:02:00,65.0,58.0,29.08,East,90,0.0,0.0,77,0.00,,,0.00,,2013-05-19 06:02:00,
2013-05-19 02:12:00,65.0,58.0,29.08,East,90,0.0,0.0,77,0.00,,,0.00,,2013-05-19 06:12:00,
2013-05-19 02:21:00,65.0,58.0,29.10,East,90,0.0,0.0,78,0.00,,,0.00,,2013-05-19 06:21:00,
2013-05-19 02:32:00,64.0,57.0,29.07,East,90,0.0,0.0,78,0.00,,,0.00,,2013-05-19 06:32:00,
2013-05-19 02:42:00,64.0,57.0,29.07,East,90,0.0,0.0,78,0.00,,,0.00,,2013-05-19 06:42:00,
2013-05-19 02:52:00,64.0,58.0,29.07,East,90,0.0,0.0,80,0.00,,,0.00,,2013-05-19 06:52:00,
2013-05-19 03:01:00,63.0,57.0,29.07,East,90,0.0,0.0,81,0.00,,,0.00,,2013-05-19 07:01:00,
2013-05-19 03:11:00,63.0,57.0,29.07,East,90,0.0,0.0,81,0.00,,,0.00,,2013-05-19 07:11:00,
2013-05-19 03:22:00,63.0,57.0,29.07,East,90,0.0,0.0,82,0.00,,,0.00,,2013-05-19 07:22:00,
2013-05-19 03:32:00,63.0,57.0,29.07,East,90,0.0,0.0,82,0.00,,,0.00,,2013-05-19 07:32:00,
2013-05-19 03:42:00,63.0,57.0,29.07,East,90,0.0,0.0,82,0.00,,,0.00,,2013-05-19 07:42:00,
2013-05-19 03:52:00,62.0,57.0,29.07,East,90,0.0,0.0,83,0.00,,,0.00,,2013-05-19 07:52:00,
2013-05-19 04:02:00,62.0,57.0,29.07,East,90,0.0,0.0,83,0.00,,,0.00,,2013-05-19 08:02:00,
2013-05-19 04:12:00,62.0,57.0,29.07,East,90,0.0,0.0,83,0.00,,,0.00,,2013-05-19 08:12:00,
2013-05-19 04:22:00,62.0,57.0,29.07,East,90,0.0,0.0,84,0.00,,,0.00,,2013-05-19 08:22:00,
2013-05-19 04:32:00,61.0,56.0,29.07,East,90,0.0,0.0,85,0.00,,,0.00,,2013-05-19 08:32:00,
2013-05-19 04:42:00,61.0,56.0,29.07,East,90,0.0,0.0,85,0.00,,,0.00,,2013-05-19 08:42:00,
2013-05-19 04:52:00,61.0,57.0,29.07,East,90,0.0,0.0,86,0.00,,,0.00,,2013-05-19 08:52:00,
2013-05-19 05:02:00,61.0,57.0,29.07,East,90,0.0,0.0,87,0.00,,,0.00,,2013-05-19 09:02:00,
2013-05-19 05:12:00,61.0,57.0,29.07,East,90,0.0,0.0,87,0.00,,,0.00,,2013-05-19 09:12:00,
2013-05-19 05:21:00,61.0,58.0,29.07,East,90,0.0,0.0,89,0.00,,,0.00,,2013-05-19 09:21:00,
2013-05-19 05:32:00,60.0,57.0,29.07,East,90,0.0,0.0,89,0.00,,,0.00,,2013-05-19 09:32:00,
2013-05-19 05:43:00,60.0,57.0,29.07,East,90,0.0,0.0,89,0.00,,,0.00,,2013-05-19 09:43:00,
2013-05-19 05:53:00,60.0,57.0,29.07,East,90,0.0,0.0,90,0.00,,,0.00,,2013-05-19 09:53:00,
2013-05-19 06:03:00,60.0,58.0,29.07,East,90,0.0,0.0,92,0.00,,,0.00,,2013-05-19 10:03:00,
2013-05-19 06:12:00,60.0,58.0,29.07,East,90,0.0,0.0,92,0.00,,,0.00,,2013-05-19 10:12:00,
2013-05-19 06:23:00,60.0,58.0,29.07,East,90,0.0,0.0,92,0.00,,,0.00,,2013-05-19 10:23:00,
2013-05-19 06:33:00,60.0,58.0,29.10,East,90,0.0,0.0,92,0.00,,,0.00,,2013-05-19 10:33:00,
2013-05-19 06:42:00,60.0,58.0,29.10,East,90,0.0,0.0,92,0.00,,,0.00,,2013-05-19 10:42:00,
2013-05-19 06:52:00,60.0,58.0,29.10,East,90,0.0,0.0,93,0.00,,,0.00,,2013-05-19 10:52:00,
2013-05-19 07:02:00,61.0,59.0,29.10,East,90,0.0,0.0,94,0.00,,,0.00,,2013-05-19 11:02:00,
2013-05-19 07:12:00,61.0,59.0,29.10,East,90,0.0,0.0,94,0.00,,,0.00,,2013-05-19 11:12:00,
2013-05-19 07:21:00,62.0,60.0,29.10,East,90,0.0,0.0,94,0.00,,,0.00,,2013-05-19 11:21:00,
2013-05-19 07:32:00,63.0,62.0,29.10,East,90,0.0,0.0,95,0.00,,,0.00,,2013-05-19 11:32:00,
2013-05-19 07:42:00,63.0,62.0,29.10,East,90,0.0,0.0,95,0.00,,,0.00,,2013-05-19 11:42:00,
2013-05-19 07:52:00,65.0,63.0,29.10,East,90,0.0,0.0,92,0.00,,,0.00,,2013-05-19 11:52:00,
2013-05-19 08:01:00,67.0,64.0,29.10,East,90,0.0,0.0,89,0.00,,,0.00,,2013-05-19 12:01:00,
2013-05-19 08:12:00,67.0,64.0,29.10,East,90,0.0,0.0,89,0.00,,,0.00,,2013-05-19 12:12:00,
2013-05-19 08:22:00,69.0,62.0,29.10,East,90,0.0,0.0,79,0.00,,,0.00,,2013-05-19 12:22:00,
2013-05-19 08:32:00,70.0,61.0,29.10,East,90,0.0,0.0,73,0.00,,,0.00,,2013-05-19 12:32:00,
2013-05-19 08:42:00,70.0,61.0,29.10,East,90,0.0,0.0,73,0.00,,,0.00,,2013-05-19 12:42:00,
2013-05-19 08:52:00,72.0,60.0,29.13,East,90,0.0,0.0,66,0.00,,,0.00,,2013-05-19 12:52:00,
2013-05-19 09:01:00,71.0,59.0,29.13,East,90,0.0,0.0,65,0.00,,,0.00,,2013-05-19 13:01:00,
2013-05-19 09:11:00,71.0,59.0,29.13,East,90,0.0,0.0,65,0.00,,,0.00,,2013-05-19 13:11:00,
2013-05-19 09:21:00,70.0,58.0,29.13,East,90,0.0,0.0,66,0.00,,,0.00,,2013-05-19 13:21:00,
2013-05-19 09:32:00,70.0,58.0,29.13,East,90,0.0,0.0,66,0.00,,,0.00,,2013-05-19 13:32:00,
2013-05-19 09:42:00,70.0,58.0,29.13,East,90,0.0,0.0,66,0.00,,,0.00,,2013-05-19 13:42:00,
2013-05-19 09:52:00,71.0,59.0,29.13,East,90,0.0,0.0,65,0.00,,,0.00,,2013-05-19 13:52:00,
2013-05-19 10:02:00,72.0,59.0,29.10,ESE,112,0.0,0.0,63,0.00,,,0.00,,2013-05-19 14:02:00,
2013-05-19 10:11:00,72.0,59.0,29.10,ESE,112,0.0,0.0,63,0.00,,,0.00,,2013-05-19 14:11:00,
2013-05-19 10:21:00,74.0,59.0,29.10,ENE,67,0.0,0.0,59,0.00,,,0.00,,2013-05-19 14:21:00,
2013-05-19 10:32:00,77.0,56.0,29.10,ESE,112,0.0,0.0,49,0.00,,,0.00,,2013-05-19 14:32:00,
2013-05-19 11:02:00,79.0,57.0,29.10,SSE,157,0.0,0.0,47,0.00,,,0.00,,2013-05-19 15:02:00,
2013-05-19 11:22:00,81.0,56.0,29.10,ESE,112,0.0,0.0,43,0.00,,,0.00,,2013-05-19 15:22:00,
2013-05-19 11:33:00,82.0,57.0,29.10,ESE,112,0.0,0.0,42,0.00,,,0.00,,2013-05-19 15:33:00,
2013-05-19 11:53:00,82.0,56.0,29.10,South,180,0.0,0.0,41,0.00,,,0.00,,2013-05-19 15:53:00,
2013-05-19 12:03:00,82.0,57.0,29.10,East,90,0.0,0.0,42,0.00,,,0.00,,2013-05-19 16:03:00,
2013-05-19 12:23:00,85.0,57.0,29.08,SSE,157,0.0,0.0,38,0.00,,,0.00,,2013-05-19 16:23:00,
2013-05-19 12:32:00,86.0,55.0,29.08,East,90,0.0,0.0,35,0.00,,,0.00,,2013-05-19 16:32:00,
2013-05-19 12:52:00,85.0,54.0,29.08,ESE,112,0.0,0.0,35,0.00,,,0.00,,2013-05-19 16:52:00,
2013-05-19 13:02:00,85.0,55.0,29.08,East,90,0.0,0.0,36,0.00,,,0.00,,2013-05-19 17:02:00,
2013-05-19 13:22:00,84.0,55.0,29.10,SE,135,0.0,0.0,37,0.00,,,0.00,,2013-05-19 17:22:00,
2013-05-19 13:32:00,86.0,55.0,29.10,East,90,0.0,0.0,35,0.00,,,0.00,,2013-05-19 17:32:00,
2013-05-19 13:52:00,83.0,55.0,29.07,East,90,0.0,0.0,38,0.00,,,0.00,,2013-05-19 17:52:00,
2013-05-19 14:02:00,81.0,54.0,29.07,SSE,157,0.0,0.0,40,0.00,,,0.00,,2013-05-19 18:02:00,
2013-05-19 14:22:00,85.0,57.0,29.07,WSW,247,0.0,0.0,38,0.00,,,0.00,,2013-05-19 18:22:00,
2013-05-19 14:32:00,85.0,55.0,29.07,SE,135,0.0,0.0,36,0.00,,,0.00,,2013-05-19 18:32:00,
2013-05-19 14:52:00,89.0,54.0,29.08,SSW,202,0.0,0.0,31,0.00,,,0.00,,2013-05-19 18:52:00,
2013-05-19 15:01:00,89.0,54.0,29.08,East,90,0.0,0.0,30,0.00,,,0.00,,2013-05-19 19:01:00,
2013-05-19 15:22:00,87.0,54.0,29.07,WSW,247,0.0,0.0,32,0.00,,,0.00,,2013-05-19 19:22:00,
2013-05-19 15:32:00,85.0,53.0,29.04,South,180,0.0,0.0,34,0.00,,,0.00,,2013-05-19 19:32:00,
2013-05-19 15:52:00,85.0,54.0,29.04,WNW,292,0.0,0.0,35,0.00,,,0.00,,2013-05-19 19:52:00,
2013-05-19 16:02:00,86.0,54.0,29.04,SSW,202,0.0,0.0,34,0.00,,,0.00,,2013-05-19 20:02:00,
2013-05-19 16:22:00,86.0,55.0,29.04,SW,225,0.0,0.0,35,0.00,,,0.00,,2013-05-19 20:22:00,
2013-05-19 16:32:00,87.0,54.0,29.04,ESE,112,0.0,0.0,33,0.00,,,0.00,,2013-05-19 20:32:00,
2013-05-19 16:52:00,83.0,53.0,29.04,SSW,202,0.0,0.0,36,0.00,,,0.00,,2013-05-19 20:52:00,
2013-05-19 17:02:00,82.0,55.0,29.04,SSW,202,0.0,0.0,39,0.00,,,0.00,,2013-05-19 21:02:00,
2013-05-19 17:22:00,81.0,54.0,29.04,ENE,67,0.0,0.0,40,0.00,,,0.00,,2013-05-19 21:22:00,
2013-05-19 17:32:00,80.0,54.0,29.04,ENE,67,0.0,0.0,41,0.00,,,0.00,,2013-05-19 21:32:00,
2013-05-19 17:53:00,80.0,55.0,29.04,ESE,112,0.0,0.0,42,0.00,,,0.00,,2013-05-19 21:53:00,
2013-05-19 18:03:00,80.0,55.0,29.04,East,90,0.0,0.0,43,0.00,,,0.00,,2013-05-19 22:03:00,
2013-05-19 18:12:00,80.0,55.0,29.04,East,90,0.0,0.0,43,0.00,,,0.00,,2013-05-19 22:12:00,
2013-05-19 18:23:00,80.0,57.0,29.01,ENE,67,0.0,0.0,45,0.00,,,0.00,,2013-05-19 22:23:00,
2013-05-19 18:33:00,79.0,56.0,29.00,ESE,112,0.0,0.0,45,0.00,,,0.00,,2013-05-19 22:33:00,
2013-05-19 18:42:00,79.0,56.0,29.00,ESE,112,0.0,0.0,45,0.00,,,0.00,,2013-05-19 22:42:00,
2013-05-19 18:53:00,80.0,56.0,29.01,ENE,67,0.0,0.0,44,0.00,,,0.00,,2013-05-19 22:53:00,
2013-05-19 19:03:00,79.0,55.0,29.00,East,90,0.0,0.0,44,0.00,,,0.00,,2013-05-19 23:03:00,
2013-05-19 19:22:00,79.0,56.0,29.01,ESE,112,0.0,0.0,45,0.00,,,0.00,,2013-05-19 23:22:00,
2013-05-19 19:32:00,78.0,56.0,29.01,ESE,112,0.0,0.0,46,0.00,,,0.00,,2013-05-19 23:32:00,
2013-05-19 19:42:00,81.0,56.0,29.01,ENE,67,0.0,0.0,43,0.00,,,0.00,,2013-05-19 23:42:00,
2013-05-19 19:52:00,81.0,56.0,29.01,ENE,67,0.0,0.0,43,0.00,,,0.00,,2013-05-19 23:52:00,
2013-05-19 20:02:00,80.0,55.0,29.01,ESE,112,0.0,0.0,43,0.00,,,0.00,,2013-05-20 00:02:00,
2013-05-19 20:11:00,80.0,55.0,29.01,ESE,112,0.0,0.0,43,0.00,,,0.00,,2013-05-20 00:11:00,
2013-05-19 20:22:00,79.0,55.0,29.01,WSW,247,0.0,0.0,44,0.00,,,0.00,,2013-05-20 00:22:00,
2013-05-19 20:32:00,78.0,55.0,29.01,ENE,67,0.0,0.0,45,0.00,,,0.00,,2013-05-20 00:32:00,
2013-05-19 20:52:00,76.0,55.0,29.01,ESE,112,0.0,0.0,49,0.00,,,0.00,,2013-05-20 00:52:00,
2013-05-19 21:01:00,75.0,56.0,29.04,ENE,67,0.0,0.0,51,0.00,,,0.00,,2013-05-20 01:01:00,
2013-05-19 21:11:00,75.0,56.0,29.04,ENE,67,0.0,0.0,51,0.00,,,0.00,,2013-05-20 01:11:00,
2013-05-19 21:21:00,74.0,57.0,29.04,ENE,67,0.0,0.0,55,0.00,,,0.00,,2013-05-20 01:21:00,
2013-05-19 21:32:00,73.0,57.0,29.04,ENE,67,0.0,0.0,57,0.00,,,0.00,,2013-05-20 01:32:00,
2013-05-19 21:42:00,73.0,57.0,29.04,ENE,67,0.0,0.0,57,0.00,,,0.00,,2013-05-20 01:42:00,
2013-05-19 21:52:00,73.0,59.0,29.04,ENE,67,0.0,0.0,61,0.00,,,0.00,,2013-05-20 01:52:00,
2013-05-19 22:02:00,72.0,58.0,29.04,ENE,67,0.0,0.0,62,0.00,,,0.00,,2013-05-20 02:02:00,
2013-05-19 22:12:00,72.0,58.0,29.04,ENE,67,0.0,0.0,62,0.00,,,0.00,,2013-05-20 02:12:00,
2013-05-19 22:21:00,72.0,58.0,29.04,ENE,67,0.0,0.0,62,0.00,,,0.00,,2013-05-20 02:21:00,
2013-05-19 22:32:00,71.0,59.0,29.04,ENE,67,0.0,0.0,65,0.00,,,0.00,,2013-05-20 02:32:00,
2013-05-19 22:42:00,71.0,59.0,29.04,ENE,67,0.0,0.0,65,0.00,,,0.00,,2013-05-20 02:42:00,
2013-05-19 22:51:00,71.0,59.0,29.07,ENE,67,0.0,0.0,66,0.00,,,0.00,,2013-05-20 02:51:00,
2013-05-19 23:02:00,70.0,59.0,29.05,ESE,112,0.0,0.0,68,0.00,,,0.00,,2013-05-20 03:02:00,
2013-05-19 23:11:00,70.0,59.0,29.05,ESE,112,0.0,0.0,68,0.00,,,0.00,,2013-05-20 03:11:00,
2013-05-19 23:21:00,70.0,59.0,29.05,ESE,112,0.0,0.0,68,0.00,,,0.00,,2013-05-20 03:21:00,
2013-05-19 23:33:00,69.0,59.0,29.05,ESE,112,0.0,0.0,70,0.00,,,0.00,,2013-05-20 03:33:00,
2013-05-19 23:43:00,69.0,59.0,29.05,ESE,112,0.0,0.0,71,0.00,,,0.00,,2013-05-20 03:43:00,
2013-05-19 23:52:00,69.0,59.0,29.05,ESE,112,0.0,0.0,71,0.00,,,0.00,,2013-05-20 03:52:00,